CAPE
561 921 870 801 1040 1329 1510 1678 1749 1662 1898 2201 1939 1604 1424 1198 1217 1228 1337 1538 903 1159 1253 1246 1578 2472 2101 1916 2353 2242 2447 1762 1583
646 494 917 901 971 1222 1476 1625 1802 1886 1938 2096 1842 1463 1541 1226 1225 1245 1161 1232 1449 1360 1633 1381 1885 2286 2153 2212 2282 2436 2289 1744 1945
898 872 586 714 1011 1233 1470 1584 1818 1934 1826 2051 1876 1389 1464 1124 1181 1358 1496 1441 1573 1342 1482 1717 1923 2378 2374 2550 2548 2352 2493 1941 1937
860 1126 1251 1238 902 1016 1395 1544 1639 1916 1902 1975 1849 1417 1474 1120 1052 1262 1610 1574 1730 1660 1598 2038 2252 2479 2398 2516 2621 2468 2789 2844 2081
789 870 1192 1305 890 1099 1436 1550 1690 1793 2015 2004 1903 1659 1498 1469 1262 1212 1346 1394 1431 1676 1770 1785 2137 2379 2400 2606 2374 2337 2550 2570 1786
517 587 820 1159 1396 1417 1540 1775 1921 1961 2117 2128 1942 1823 1613 1613 1466 1292 1009 1274 1371 1388 1651 1780 1724 2301 2578 2464 2445 2525 2613 2570 2086
263 219 278 675 926 1371 1588 1825 2055 2226 2169 2241 2178 1929 1803 1802 1590 1345 1171 968 1148 1184 1516 1727 1752 2104 2430 2533 2697 2089 2277 2366 2398
62 87 77 114 542 725 1194 1801 1856 2153 2266 2328 2470 2363 2063 2024 1955 1731 1446 1488 1450 1224 1400 1736 1796 1989 2315 2498 2312 1639 1903 2142 2345
0 0 0 0 135 565 606 854 1603 1930 2044 2260 2404 2585 2440 2309 2622 2488 2444 2412 2166 2117 1747 2185 1969 1885 1912 1998 1693 803 489 861 2149
0 0 0 0 0 132 706 639 672 1049 2007 1998 2251 2599 2661 2554 2502 2391 2442 2219 2534 2036 2189 2281 2101 1929 1904 1896 1924 927 573 408 1040
0 0 0 0 0 0 8 322 680 820 994 2318 2175 2493 2487 2693 2681 2450 2368 2398 2492 2761 2307 2178 2254 1931 2454 2282 2184 1306 915 563 1333
0 0 0 0 0 0 0 56 356 874 925 951 2480 2170 2257 2437 2541 2665 2469 2458 2683 2686 2448 2431 2159 2215 2491 2679 2293 1155 1077 1138 1646
0 0 0 0 1 3 27 119 250 454 937 964 817 2437 2312 2583 2891 2632 2770 2609 2889 3047 2667 2718 2484 2491 2525 2272 2659 1883 1687 1343 1486
6 24 56 73 78 107 167 225 242 636 666 907 1195 903 679 1499 2406 2779 2548 2916 2939 2862 2778 3176 2711 3039 2945 3141 2698 2761 1642 891 1097
99 205 184 184 163 190 244 285 322 585 861 753 867 1218 643 630 1573 2356 2393 3015 2999 2902 2852 2856 2836 2892 2684 2471 2734 2190 1763 1033 511
143 167 224 290 333 303 290 340 343 507 719 1029 792 1113 1363 1073 1063 1343 2210 3238 3420 2549 2913 2717 2715 2583 2472 2298 2308 2857 1653 1166 623
251 255 333 356 372 428 423 436 520 455 597 792 876 725 1025 1195 1155 1311 1482 2646 2885 2933 2778 2804 2751 2624 2608 2404 2168 2333 1822 932 651
265 248 267 292 360 516 431 464 577 598 616 603 790 665 631 752 1029 1160 1202 1195 1147 2348 3017 2773 2853 2871 2793 2753 3300 2476 1645 1000 985
269 242 220 332 435 461 548 431 529 711 730 689 710 641 398 373 800 1102 958 925 942 822 1556 1801 2030 1967 1900 2602 2003 1979 1486 1184 963
87 54 355 288 473 245 731 546 699 713 836 652 713 779 567 317 79 684 810 779 903 1260 240 396 1039 1436 1632 1793 1890 1646 1194 892 464
CIN
-72 -41 -34 -21 -18 -29 -57 -75 -74 -94 -53 -15 -12 -14 -12 -5 -0 -0 -0 -0 -0 -0 -0 -0 -0 -0 -0 -0 -0 -0 -0 -0 -0
-84 -79 -33 -21 -28 -32 -58 -63 -90 -101 -75 -40 -34 -32 -10 -11 -1 -0 -0 -0 -0 -0 -0 -0 -0 -0 -0 -0 -0 -0 -0 -0 -0
-158 -143 -120 -90 -57 -43 -51 -41 -60 -96 -79 -49 -49 -50 -35 -33 -4 -0 -0 -0 -0 -0 -0 -0 -0 -0 -0 -0 -0 -0 -0 -0 -0
-205 -191 -192 -170 -123 -101 -73 -60 -50 -71 -79 -66 -56 -62 -42 -46 -28 -0 -0 -0 -0 -0 -0 -0 -0 -2 -2 -0 -0 -0 -0 -0 -0
-233 -255 -227 -200 -163 -133 -123 -97 -68 -74 -88 -81 -67 -66 -55 -36 -33 -12 -0 -0 -0 -0 -0 -0 -0 -0 -3 -0 -0 -0 -0 -0 -0
-237 -269 -267 -238 -216 -184 -140 -131 -103 -85 -78 -72 -61 -68 -61 -41 -29 -17 -14 -1 -0 -0 -0 -0 -0 -0 -0 -0 -0 -1 -2 -3 -0
-215 -266 -307 -270 -253 -210 -185 -134 -100 -78 -66 -63 -52 -50 -61 -47 -45 -36 -21 -16 -11 -6 -1 -0 -0 -0 -0 -0 -0 -0 -0 -0 -7
-267 -266 -306 -319 -251 -250 -194 -122 -121 -87 -60 -47 -42 -40 -55 -55 -45 -30 -30 -9 -6 -22 -7 -0 -0 -0 -0 -0 -0 -0 -0 -0 -0
-0 -0 -0 -0 -293 -205 -224 -206 -107 -76 -70 -47 -33 -25 -42 -40 -19 -16 -10 -7 -8 -1 -11 -1 -2 -1 -0 -0 -0 -1 -25 -38 -0
-0 -0 -0 -0 -0 -248 -131 -174 -198 -154 -58 -68 -51 -34 -23 -23 -27 -27 -22 -22 -4 -23 -6 -3 -5 -6 -3 -3 -1 -28 -41 -74 -8
-0 -0 -0 -0 -0 -0 -159 -173 -135 -152 -134 -15 -24 -16 -24 -17 -19 -34 -29 -22 -17 -10 -23 -15 -7 -16 -1 -4 -9 -40 -51 -73 -19
-0 -0 -0 -0 -0 -0 -0 -206 -137 -88 -109 -129 -0 -8 -6 -4 -10 -17 -26 -21 -16 -17 -20 -27 -32 -21 -5 -3 -15 -77 -82 -60 -12
-0 -0 -0 -8 -23 -286 -217 -160 -149 -120 -61 -67 -107 -0 -2 -1 -0 -3 -5 -13 -8 -4 -11 -13 -18 -17 -9 -15 -6 -46 -56 -59 -5
-44 -137 -138 -135 -203 -234 -197 -141 -151 -74 -73 -28 -17 -112 -43 -30 -0 -0 -1 -0 -3 -3 -4 -0 -8 -7 -16 -4 -6 -12 -52 -45 -32
-74 -98 -64 -56 -93 -118 -126 -122 -112 -70 -28 -30 -53 -32 -102 -175 -0 -0 -0 -0 -0 -8 -5 -1 -4 -7 -19 -26 -18 -38 -40 -48 -43
-16 -18 -27 -6 -27 -32 -54 -67 -102 -62 -41 -11 -45 -41 -11 -22 -72 -132 -2 -0 -0 -12 -12 -7 -3 -6 -18 -13 -3 -3 -52 -66 -24
-0 -1 -12 -3 -12 -4 -21 -26 -34 -45 -32 -22 -26 -59 -24 -19 -16 -16 -5 -1 -0 -0 -7 -3 -2 -0 -0 -3 -2 -0 -38 -53 -14
-0 -2 -2 -8 -2 -0 -8 -9 -3 -8 -17 -23 -15 -29 -61 -71 -55 -12 -14 -60 -21 -1 -0 -0 -5 -0 -0 -0 -4 -5 -72 -72 -18
-1 -5 -2 -0 -0 -0 -0 -0 -0 -0 -1 -12 -10 -15 -43 -56 -17 -18 -16 -57 -88 -142 -69 -80 -63 -54 -29 -0 -4 -10 -61 -27 -19
-3 -47 -0 -0 -0 -0 -0 -0 -0 -1 -0 -0 -0 -6 -16 -35 -124 -12 -18 -25 -29 -45 -291 -287 -159 -111 -91 -45 -9 -43 -55 -71 -113
Wind_Speed
13 23 22 19 17 18 19 19 20 20 18 16 16 16 14 12 9 6 9 8 9 11 10 12 15 12 12 8 8 9 12 13 8
8 8 17 22 22 18 20 21 22 19 15 16 15 16 15 13 11 6 7 9 10 10 10 14 16 12 12 12 9 7 11 11 9
10 4 2 12 17 20 18 17 18 20 21 16 13 18 17 14 13 12 7 9 9 10 14 12 17 14 13 11 10 8 10 11 7
15 13 9 4 4 12 16 15 17 20 20 19 15 15 15 16 14 12 11 8 9 10 10 14 14 14 14 12 12 11 11 9 10
20 20 18 14 9 4 8 11 18 20 21 20 18 15 12 14 13 10 12 9 9 9 10 13 14 13 11 12 14 13 13 11 11
29 28 28 26 23 20 12 7 9 12 19 22 22 16 14 12 12 11 9 11 7 8 8 7 10 10 10 16 14 12 13 12 12
30 32 34 34 32 29 26 21 16 14 15 15 15 21 16 13 10 11 10 11 8 6 7 7 9 9 9 12 17 13 13 12 14
nan nan nan 38 38 36 34 32 27 22 15 13 14 16 20 19 17 11 7 10 10 8 8 7 9 8 8 9 14 14 12 13 14
nan nan nan nan 43 43 44 39 38 35 26 18 16 13 12 16 18 18 13 10 13 14 12 10 9 6 7 9 13 15 18 16 16
nan nan nan nan nan 48 47 46 41 40 37 26 19 12 8 9 14 15 18 15 12 12 13 14 11 9 5 5 10 17 21 19 14
nan nan nan nan nan nan nan 50 50 45 43 37 26 21 13 9 12 16 16 18 15 13 14 13 13 12 9 8 9 16 19 22 15
nan nan nan nan nan nan nan nan 53 53 51 46 40 29 26 21 17 15 17 15 17 16 15 15 14 13 10 9 9 18 20 22 14
nan nan nan nan nan nan nan 45 51 55 56 55 48 44 36 30 26 16 13 15 17 20 17 15 18 14 12 11 10 16 19 20 14
nan nan nan nan nan 23 20 30 42 52 57 56 52 48 47 52 37 27 18 18 19 19 19 17 16 14 13 13 10 9 20 19 16
nan 18 22 20 24 24 30 29 25 38 52 62 57 52 58 57 23 31 26 22 22 20 20 16 12 14 14 16 16 16 22 22 16
22 20 21 16 18 19 22 26 25 25 41 54 59 62 38 51 50 55 24 26 26 26 21 19 15 14 13 14 16 17 27 24 21
23 22 18 21 21 16 16 23 26 24 30 42 49 49 51 52 51 36 32 31 26 26 25 23 21 18 16 15 16 19 25 21 25
20 22 19 20 24 22 17 18 22 24 23 35 42 44 48 49 44 43 40 36 36 30 26 29 24 23 23 21 17 18 20 20 22
21 22 23 21 21 19 19 18 17 24 27 26 35 41 44 48 49 44 48 51 42 46 39 35 30 34 30 27 31 35 29 24 27
nan nan 17 14 19 16 15 17 18 18 27 30 30 37 41 46 nan 40 41 43 35 36 39 36 37 36 34 30 30 34 33 30 30
Wind_Direction
13 19 22 22 18 11 13 12 15 2 3 5 354 356 346 342 347 311 273 296 268 265 241 233 237 223 222 228 240 226 224 202 186
280 347 21 17 10 7 8 9 12 6 3 357 1 352 343 340 335 352 302 281 258 263 248 236 236 222 225 230 238 233 198 189 196
257 245 313 13 7 3 355 358 357 1 13 6 349 346 335 335 336 330 316 276 258 254 262 221 238 234 228 225 238 233 228 235 233
236 251 227 209 23 348 1 356 351 352 0 360 353 354 339 338 331 327 324 306 277 248 240 245 248 260 240 216 235 238 252 244 224
237 236 241 240 231 294 336 346 353 347 2 0 345 335 331 339 330 324 319 323 305 279 252 251 242 263 256 231 234 231 243 245 240
247 245 245 240 245 225 232 273 329 333 336 348 347 326 318 320 332 318 315 312 322 298 278 250 243 259 245 212 222 236 235 246 244
252 248 246 246 241 238 239 238 262 292 307 324 343 348 324 308 313 321 305 300 313 313 287 270 267 250 271 224 214 230 230 239 259
nan nan nan 249 245 243 240 248 251 263 272 279 294 323 334 325 301 302 303 284 285 291 287 266 268 270 260 251 206 221 250 247 253
nan nan nan nan 246 245 244 242 242 250 253 255 273 297 320 319 311 296 287 269 272 272 280 269 264 272 256 250 234 232 246 240 243
nan nan nan nan nan 243 244 239 234 241 246 253 258 264 273 297 306 309 296 279 273 279 267 268 266 252 245 239 238 238 252 261 239
nan nan nan nan nan nan nan 236 235 231 235 242 253 249 236 255 291 299 292 288 279 261 264 263 257 262 254 245 242 255 262 263 253
nan nan nan nan nan nan nan nan 228 224 231 230 237 245 241 238 248 277 285 284 278 262 254 255 261 256 261 261 257 268 276 270 259
nan nan nan nan nan nan nan 233 230 223 224 233 224 230 245 242 235 241 264 273 278 268 254 244 247 256 259 260 255 274 278 277 253
nan nan nan nan nan 263 262 249 235 228 225 231 230 231 233 232 223 220 226 244 258 267 260 240 244 243 254 254 275 261 282 279 264
nan 280 281 276 267 262 259 253 251 234 231 233 232 229 239 244 210 221 223 240 244 252 256 247 241 238 233 272 254 261 269 279 288
285 289 285 283 272 272 270 256 252 244 232 234 234 236 237 248 246 224 217 233 240 238 245 240 243 237 238 249 261 264 273 281 281
280 287 289 277 270 271 264 259 255 243 233 233 237 232 233 241 253 250 238 236 239 238 238 242 242 237 245 240 249 261 267 266 266
295 295 295 279 273 275 270 258 258 241 237 230 233 232 229 236 239 244 239 235 228 227 226 242 247 230 235 246 250 261 266 272 264
296 295 292 298 296 283 280 268 252 249 243 239 231 230 232 233 240 247 232 235 237 231 220 219 227 221 224 233 236 266 271 263 263
nan nan 307 295 304 286 274 268 263 261 241 239 234 226 226 227 nan 239 246 234 227 237 248 242 236 226 220 214 243 263 269 268 261